Location: Camerons Lookout
(40.9833°S, 175.9333°E)
Time: 12:18:19
(UTC+00:00)

Cosmos 2221 Rocket - Pass Details

Date: 14 January 2026
Orbit: 616 x 641 km, 82.5° (Epoch: 16 February)

Event Time Altitude Azimuth Distance (km) Brightness Sun altitude
Rises 09:23:22 0° 186° (S) 2,964 8.0 -14.8°
Reaches altitude 10° 09:25:39 10° 184° (S) 2,044 7.0 -15.1°
Maximum altitude 09:30:11 74° 99° (E) 666 3.6 -15.7°
Enters shadow 09:32:40 26° 17° (NNE) 1,247 4.6 -16.0°
